Year,Month,Day,Hour,Minute,Value (Times are PST for temperature in C)
2021,04,16,00,00,9.80
2021,04,16,00,01,9.70
2021,04,16,00,02,9.70
2021,04,16,00,03,9.70
2021,04,16,00,04,9.70
2021,04,16,00,05,9.70
2021,04,16,00,06,9.60
2021,04,16,00,07,9.60
2021,04,16,00,08,9.60
2021,04,16,00,09,9.60
2021,04,16,00,10,9.60
2021,04,16,00,11,9.60
2021,04,16,00,12,9.60
2021,04,16,00,13,9.60
2021,04,16,00,14,9.60
2021,04,16,00,15,9.60
2021,04,16,00,16,9.60
2021,04,16,00,17,9.60
2021,04,16,00,18,9.60
2021,04,16,00,19,9.60
2021,04,16,00,20,9.70
2021,04,16,00,21,9.70
2021,04,16,00,22,9.70
2021,04,16,00,23,9.70
2021,04,16,00,24,9.70
2021,04,16,00,25,9.70
2021,04,16,00,26,9.70
2021,04,16,00,27,9.70
2021,04,16,00,28,9.70
2021,04,16,00,29,9.70
2021,04,16,00,30,9.60
2021,04,16,00,31,9.60
2021,04,16,00,32,9.60
2021,04,16,00,33,9.50
2021,04,16,00,34,9.50
2021,04,16,00,35,9.50
2021,04,16,00,36,9.50
2021,04,16,00,37,9.40
2021,04,16,00,38,9.40
2021,04,16,00,39,9.40
2021,04,16,00,40,9.40
2021,04,16,00,41,9.40
2021,04,16,00,42,9.40
2021,04,16,00,43,9.40
2021,04,16,00,44,9.40
2021,04,16,00,45,9.30
2021,04,16,00,46,9.30
2021,04,16,00,47,9.30
2021,04,16,00,48,9.30
2021,04,16,00,49,9.30
2021,04,16,00,50,9.30
2021,04,16,00,51,9.30
2021,04,16,00,52,9.30
2021,04,16,00,53,9.30
2021,04,16,00,54,9.20
2021,04,16,00,55,9.30
2021,04,16,00,56,9.30
2021,04,16,00,57,9.30
2021,04,16,00,58,9.30
2021,04,16,00,59,9.30
2021,04,16,01,00,9.30
2021,04,16,01,01,9.30
2021,04,16,01,02,9.40
2021,04,16,01,03,9.40
2021,04,16,01,04,9.40
2021,04,16,01,05,9.40
2021,04,16,01,06,9.40
2021,04,16,01,07,9.40
2021,04,16,01,08,9.40
2021,04,16,01,09,9.40
2021,04,16,01,10,9.40
2021,04,16,01,11,9.40
2021,04,16,01,12,9.40
2021,04,16,01,13,9.40
2021,04,16,01,14,9.40
2021,04,16,01,15,9.40
2021,04,16,01,16,9.40
2021,04,16,01,17,9.30
2021,04,16,01,18,9.40
2021,04,16,01,19,9.40
2021,04,16,01,20,9.40
2021,04,16,01,21,9.40
2021,04,16,01,22,9.40
2021,04,16,01,23,9.40
2021,04,16,01,24,9.50
2021,04,16,01,25,9.50
2021,04,16,01,26,9.50
2021,04,16,01,27,9.50
2021,04,16,01,28,9.50
2021,04,16,01,29,9.50
2021,04,16,01,30,9.40
2021,04,16,01,31,9.40
2021,04,16,01,32,9.40
2021,04,16,01,33,9.40
2021,04,16,01,34,9.40
2021,04,16,01,35,9.40
2021,04,16,01,36,9.40
2021,04,16,01,37,9.40
2021,04,16,01,38,9.40
2021,04,16,01,39,9.50
2021,04,16,01,40,9.50
2021,04,16,01,41,9.60
2021,04,16,01,42,9.60
2021,04,16,01,43,9.70
2021,04,16,01,44,9.80
2021,04,16,01,45,9.80
2021,04,16,01,46,9.90
2021,04,16,01,47,9.90
2021,04,16,01,48,9.90
2021,04,16,01,49,9.90
2021,04,16,01,50,9.90
2021,04,16,01,51,10.00
2021,04,16,01,52,10.00
2021,04,16,01,53,10.00
2021,04,16,01,54,10.00
2021,04,16,01,55,10.00
2021,04,16,01,56,10.00
2021,04,16,01,57,10.00
2021,04,16,01,58,9.90
2021,04,16,01,59,9.90
2021,04,16,02,00,9.80
2021,04,16,02,01,9.80
2021,04,16,02,02,9.70
2021,04,16,02,03,9.70
2021,04,16,02,04,9.60
2021,04,16,02,05,9.50
2021,04,16,02,06,9.40
2021,04,16,02,07,9.30
2021,04,16,02,08,9.30
2021,04,16,02,09,9.20
2021,04,16,02,10,9.20
2021,04,16,02,11,9.20
2021,04,16,02,12,9.20
2021,04,16,02,13,9.20
2021,04,16,02,14,9.20
2021,04,16,02,15,9.20
2021,04,16,02,16,9.20
2021,04,16,02,17,9.20
2021,04,16,02,18,9.20
2021,04,16,02,19,9.20
2021,04,16,02,20,9.20
2021,04,16,02,21,9.20
2021,04,16,02,22,9.30
2021,04,16,02,23,9.20
2021,04,16,02,24,9.20
2021,04,16,02,25,9.20
2021,04,16,02,26,9.30
2021,04,16,02,27,9.30
2021,04,16,02,28,9.20
2021,04,16,02,29,9.20
2021,04,16,02,30,9.20
2021,04,16,02,31,9.20
2021,04,16,02,32,9.20
2021,04,16,02,33,9.20
2021,04,16,02,34,9.20
2021,04,16,02,35,9.20
2021,04,16,02,36,9.20
2021,04,16,02,37,9.20
2021,04,16,02,38,9.30
2021,04,16,02,39,9.30
2021,04,16,02,40,9.30
2021,04,16,02,41,9.30
2021,04,16,02,42,9.30
2021,04,16,02,43,9.30
2021,04,16,02,44,9.40
2021,04,16,02,45,9.40
2021,04,16,02,46,9.40
2021,04,16,02,47,9.40
2021,04,16,02,48,9.40
2021,04,16,02,49,9.50
2021,04,16,02,50,9.50
2021,04,16,02,51,9.50
2021,04,16,02,52,9.50
2021,04,16,02,53,9.40
2021,04,16,02,54,9.50
2021,04,16,02,55,9.50
2021,04,16,02,56,9.40
2021,04,16,02,57,9.40
2021,04,16,02,58,9.40
2021,04,16,02,59,9.40
2021,04,16,03,00,9.40
2021,04,16,03,01,9.40
2021,04,16,03,02,9.30
2021,04,16,03,03,9.30
2021,04,16,03,04,9.30
2021,04,16,03,05,9.30
2021,04,16,03,06,9.30
2021,04,16,03,07,9.20
2021,04,16,03,08,9.20
2021,04,16,03,09,9.20
2021,04,16,03,10,9.20
2021,04,16,03,11,9.20
2021,04,16,03,12,9.20
2021,04,16,03,13,9.20
2021,04,16,03,14,9.20
2021,04,16,03,15,9.20
2021,04,16,03,16,9.20
2021,04,16,03,17,9.20
2021,04,16,03,18,9.20
2021,04,16,03,19,9.20
2021,04,16,03,20,9.30
2021,04,16,03,21,9.30
2021,04,16,03,22,9.30
2021,04,16,03,23,9.30
2021,04,16,03,24,9.30
2021,04,16,03,25,9.40
2021,04,16,03,26,9.40
2021,04,16,03,27,9.40
2021,04,16,03,28,9.40
2021,04,16,03,29,9.50
2021,04,16,03,30,9.50
2021,04,16,03,31,9.50
2021,04,16,03,32,9.50
2021,04,16,03,33,9.60
2021,04,16,03,34,9.60
2021,04,16,03,35,9.60
2021,04,16,03,36,9.70
2021,04,16,03,37,9.70
2021,04,16,03,38,9.70
2021,04,16,03,39,9.70
2021,04,16,03,40,9.80
2021,04,16,03,41,9.80
2021,04,16,03,42,9.80
2021,04,16,03,43,9.90
2021,04,16,03,44,10.00
2021,04,16,03,45,10.00
2021,04,16,03,46,10.10
2021,04,16,03,47,10.10
2021,04,16,03,48,10.10
2021,04,16,03,49,10.20
2021,04,16,03,50,10.20
2021,04,16,03,51,10.20
2021,04,16,03,52,10.10
2021,04,16,03,53,10.10
2021,04,16,03,54,10.10
2021,04,16,03,55,10.00
2021,04,16,03,56,9.90
2021,04,16,03,57,9.70
2021,04,16,03,58,9.60
2021,04,16,03,59,9.50
2021,04,16,04,00,9.50
2021,04,16,04,01,9.50
2021,04,16,04,02,9.50
2021,04,16,04,03,9.50
2021,04,16,04,04,9.50
2021,04,16,04,05,9.50
2021,04,16,04,06,9.60
2021,04,16,04,07,9.60
2021,04,16,04,08,9.60
2021,04,16,04,09,9.60
2021,04,16,04,10,9.70
2021,04,16,04,11,9.70
2021,04,16,04,12,9.70
2021,04,16,04,13,9.70
2021,04,16,04,14,9.70
2021,04,16,04,15,9.70
2021,04,16,04,16,9.70
2021,04,16,04,17,9.80
2021,04,16,04,18,9.80
2021,04,16,04,19,9.80
2021,04,16,04,20,9.80
2021,04,16,04,21,9.80
2021,04,16,04,22,9.80
2021,04,16,04,23,9.80
2021,04,16,04,24,9.90
2021,04,16,04,25,9.90
2021,04,16,04,26,10.00
2021,04,16,04,27,10.00
2021,04,16,04,28,10.10
2021,04,16,04,29,10.10
2021,04,16,04,30,10.00
2021,04,16,04,31,10.00
2021,04,16,04,32,10.00
2021,04,16,04,33,10.00
2021,04,16,04,34,10.00
2021,04,16,04,35,10.00
2021,04,16,04,36,9.90
2021,04,16,04,37,9.90
2021,04,16,04,38,9.90
2021,04,16,04,39,9.90
2021,04,16,04,40,9.90
2021,04,16,04,41,9.90
2021,04,16,04,42,9.90
2021,04,16,04,43,9.90
2021,04,16,04,44,9.90
2021,04,16,04,45,10.00
2021,04,16,04,46,10.00
2021,04,16,04,47,10.00
2021,04,16,04,48,10.00
2021,04,16,04,49,9.90
2021,04,16,04,50,9.90
2021,04,16,04,51,9.80
2021,04,16,04,52,9.70
2021,04,16,04,53,9.70
2021,04,16,04,54,9.60
2021,04,16,04,55,9.60
2021,04,16,04,56,9.50
2021,04,16,04,57,9.40
2021,04,16,04,58,9.40
2021,04,16,04,59,9.30
2021,04,16,05,00,9.30
2021,04,16,05,01,9.30
2021,04,16,05,02,9.20
2021,04,16,05,03,9.20
2021,04,16,05,04,9.30
2021,04,16,05,05,9.30
2021,04,16,05,06,9.30
2021,04,16,05,07,9.30
2021,04,16,05,08,9.30
2021,04,16,05,09,9.30
2021,04,16,05,10,9.30
2021,04,16,05,11,9.30
2021,04,16,05,12,9.40
2021,04,16,05,13,9.40
2021,04,16,05,14,9.40
2021,04,16,05,15,9.40
2021,04,16,05,16,9.40
2021,04,16,05,17,9.50
2021,04,16,05,18,9.60
2021,04,16,05,19,9.60
2021,04,16,05,20,9.70
2021,04,16,05,21,9.80
2021,04,16,05,22,9.80
2021,04,16,05,23,9.90
2021,04,16,05,24,9.90
2021,04,16,05,25,9.90
2021,04,16,05,26,10.00
2021,04,16,05,27,10.00
2021,04,16,05,28,10.10
2021,04,16,05,29,10.10
2021,04,16,05,30,10.20
2021,04,16,05,31,10.20
2021,04,16,05,32,10.30
2021,04,16,05,33,10.30
2021,04,16,05,34,10.30
2021,04,16,05,35,10.20
2021,04,16,05,36,10.20
2021,04,16,05,37,10.10
2021,04,16,05,38,10.10
2021,04,16,05,39,10.00
2021,04,16,05,40,9.90
2021,04,16,05,41,9.80
2021,04,16,05,42,9.80
2021,04,16,05,43,9.70
2021,04,16,05,44,9.70
2021,04,16,05,45,9.70
2021,04,16,05,46,9.70
2021,04,16,05,47,9.70
2021,04,16,05,48,9.70
2021,04,16,05,49,9.70
2021,04,16,05,50,9.70
2021,04,16,05,51,9.80
2021,04,16,05,52,9.80
2021,04,16,05,53,9.80
2021,04,16,05,54,9.90
2021,04,16,05,55,9.90
2021,04,16,05,56,9.90
2021,04,16,05,57,9.90
2021,04,16,05,58,9.90
2021,04,16,05,59,9.80
2021,04,16,06,00,9.80
2021,04,16,06,01,9.80
2021,04,16,06,02,9.70
2021,04,16,06,03,9.60
2021,04,16,06,04,9.60
2021,04,16,06,05,9.60
2021,04,16,06,06,9.60
2021,04,16,06,07,9.60
2021,04,16,06,08,9.50
2021,04,16,06,09,9.50
2021,04,16,06,10,9.50
2021,04,16,06,11,9.50
2021,04,16,06,12,9.40
2021,04,16,06,13,9.40
2021,04,16,06,14,9.40
2021,04,16,06,15,9.30
2021,04,16,06,16,9.30
2021,04,16,06,17,9.20
2021,04,16,06,18,9.20
2021,04,16,06,19,9.10
2021,04,16,06,20,9.10
2021,04,16,06,21,9.00
2021,04,16,06,22,9.00
2021,04,16,06,23,8.90
2021,04,16,06,24,8.90
2021,04,16,06,25,8.90
2021,04,16,06,26,9.00
2021,04,16,06,27,9.00
2021,04,16,06,28,9.00
2021,04,16,06,29,9.10
2021,04,16,06,30,9.10
2021,04,16,06,31,9.10
2021,04,16,06,32,9.10
2021,04,16,06,33,9.10
2021,04,16,06,34,9.10
2021,04,16,06,35,9.10
2021,04,16,06,36,9.10
2021,04,16,06,37,9.10
2021,04,16,06,38,9.10
2021,04,16,06,39,9.10
2021,04,16,06,40,9.10
2021,04,16,06,41,9.20
2021,04,16,06,42,9.20
2021,04,16,06,43,9.20
2021,04,16,06,44,9.20
2021,04,16,06,45,9.30
2021,04,16,06,46,9.30
2021,04,16,06,47,9.40
2021,04,16,06,48,9.40
2021,04,16,06,49,9.50
2021,04,16,06,50,9.60
2021,04,16,06,51,9.70
2021,04,16,06,52,9.70
2021,04,16,06,53,9.80
2021,04,16,06,54,9.80
2021,04,16,06,55,9.80
2021,04,16,06,56,9.90
2021,04,16,06,57,9.90
2021,04,16,06,58,9.80
2021,04,16,06,59,9.90
2021,04,16,07,00,9.90
2021,04,16,07,01,9.90
2021,04,16,07,02,9.90
2021,04,16,07,03,9.90
2021,04,16,07,04,9.90
2021,04,16,07,05,9.90
2021,04,16,07,06,9.90
2021,04,16,07,07,9.90
2021,04,16,07,08,9.90
2021,04,16,07,09,9.90
2021,04,16,07,10,9.90
2021,04,16,07,11,10.00
2021,04,16,07,12,10.00
2021,04,16,07,13,10.00
2021,04,16,07,14,10.10
2021,04,16,07,15,10.10
2021,04,16,07,16,10.10
2021,04,16,07,17,10.10
2021,04,16,07,18,10.20
2021,04,16,07,19,10.20
2021,04,16,07,20,10.20
2021,04,16,07,21,10.20
2021,04,16,07,22,10.30
2021,04,16,07,23,10.30
2021,04,16,07,24,10.30
2021,04,16,07,25,10.30
2021,04,16,07,26,10.30
2021,04,16,07,27,10.40
2021,04,16,07,28,10.40
2021,04,16,07,29,10.40
2021,04,16,07,30,10.50
2021,04,16,07,31,10.50
2021,04,16,07,32,10.60
2021,04,16,07,33,10.60
2021,04,16,07,34,10.60
2021,04,16,07,35,10.70
2021,04,16,07,36,10.70
2021,04,16,07,37,10.70
2021,04,16,07,38,10.70
2021,04,16,07,39,10.80
2021,04,16,07,40,10.80
2021,04,16,07,41,10.90
2021,04,16,07,42,10.90
2021,04,16,07,43,10.90
2021,04,16,07,44,10.90
2021,04,16,07,45,11.00
2021,04,16,07,46,11.00
2021,04,16,07,47,10.90
2021,04,16,07,48,10.90
2021,04,16,07,49,10.90
2021,04,16,07,50,11.00
2021,04,16,07,51,11.00
2021,04,16,07,52,11.10
2021,04,16,07,53,11.20
2021,04,16,07,54,11.20
2021,04,16,07,55,11.20
2021,04,16,07,56,11.20
2021,04,16,07,57,11.20
2021,04,16,07,58,11.30
2021,04,16,07,59,11.40
2021,04,16,08,00,11.40
2021,04,16,08,01,11.40
2021,04,16,08,02,11.50
2021,04,16,08,03,11.60
2021,04,16,08,04,11.70
2021,04,16,08,05,11.70
2021,04,16,08,06,11.80
2021,04,16,08,07,11.90
2021,04,16,08,08,12.10
2021,04,16,08,09,12.30
2021,04,16,08,10,12.60
2021,04,16,08,11,12.80
2021,04,16,08,12,13.00
2021,04,16,08,13,13.10
2021,04,16,08,14,13.20
2021,04,16,08,15,13.20
2021,04,16,08,16,13.30
2021,04,16,08,17,13.30
2021,04,16,08,18,13.40
2021,04,16,08,19,13.50
2021,04,16,08,20,13.70
2021,04,16,08,21,13.80
2021,04,16,08,22,14.00
2021,04,16,08,23,14.10
2021,04,16,08,24,14.20
2021,04,16,08,25,14.30
2021,04,16,08,26,14.30
2021,04,16,08,27,14.40
2021,04,16,08,28,14.40
2021,04,16,08,29,14.50
2021,04,16,08,30,14.60
2021,04,16,08,31,14.70
2021,04,16,08,32,14.80
2021,04,16,08,33,14.80
2021,04,16,08,34,14.90
2021,04,16,08,35,15.00
2021,04,16,08,36,15.10
2021,04,16,08,37,15.10
2021,04,16,08,38,15.10
2021,04,16,08,39,15.10
2021,04,16,08,40,15.10
2021,04,16,08,41,15.10
2021,04,16,08,42,15.00
2021,04,16,08,43,15.10
2021,04,16,08,44,15.10
2021,04,16,08,45,15.10
2021,04,16,08,46,15.20
2021,04,16,08,47,15.10
2021,04,16,08,48,15.10
2021,04,16,08,49,15.10
2021,04,16,08,50,15.10
2021,04,16,08,51,15.10
2021,04,16,08,52,15.10
2021,04,16,08,53,15.10
2021,04,16,08,54,15.20
2021,04,16,08,55,15.20
2021,04,16,08,56,15.30
2021,04,16,08,57,15.40
2021,04,16,08,58,15.60
2021,04,16,08,59,15.60
2021,04,16,09,00,15.70
2021,04,16,09,01,15.80
2021,04,16,09,02,15.80
2021,04,16,09,03,15.90
2021,04,16,09,04,15.90
2021,04,16,09,05,16.00
2021,04,16,09,06,16.00
2021,04,16,09,07,16.10
2021,04,16,09,08,16.10
2021,04,16,09,09,16.10
2021,04,16,09,10,16.20
2021,04,16,09,11,16.30
2021,04,16,09,12,16.30
2021,04,16,09,13,16.40
2021,04,16,09,14,16.40
2021,04,16,09,15,16.50
2021,04,16,09,16,16.50
2021,04,16,09,17,16.60
2021,04,16,09,18,16.60
2021,04,16,09,19,16.70
2021,04,16,09,20,16.70
2021,04,16,09,21,16.80
2021,04,16,09,22,16.80
2021,04,16,09,23,16.80
2021,04,16,09,24,16.90
2021,04,16,09,25,16.90
2021,04,16,09,26,17.00
2021,04,16,09,27,17.10
2021,04,16,09,28,17.30
2021,04,16,09,29,17.40
2021,04,16,09,30,17.50
2021,04,16,09,31,17.60
2021,04,16,09,32,17.70
2021,04,16,09,33,17.70
2021,04,16,09,34,17.70
2021,04,16,09,35,17.70
2021,04,16,09,36,17.70
2021,04,16,09,37,17.70
2021,04,16,09,38,17.80
2021,04,16,09,39,17.70
2021,04,16,09,40,17.70
2021,04,16,09,41,17.60
2021,04,16,09,42,17.50
2021,04,16,09,43,17.50
2021,04,16,09,44,17.40
2021,04,16,09,45,17.30
2021,04,16,09,46,17.20
2021,04,16,09,47,17.10
2021,04,16,09,48,17.10
2021,04,16,09,49,17.00
2021,04,16,09,50,17.00
2021,04,16,09,51,17.00
2021,04,16,09,52,17.00
2021,04,16,09,53,17.10
2021,04,16,09,54,17.10
2021,04,16,09,55,17.00
2021,04,16,09,56,16.90
2021,04,16,09,57,16.80
2021,04,16,09,58,16.80
2021,04,16,09,59,16.70
2021,04,16,10,00,16.60
2021,04,16,10,01,16.70
2021,04,16,10,02,16.70
2021,04,16,10,03,16.80
2021,04,16,10,04,16.80
2021,04,16,10,05,16.80
2021,04,16,10,06,16.80
2021,04,16,10,07,16.80
2021,04,16,10,08,16.80
2021,04,16,10,09,16.80
2021,04,16,10,10,16.80
2021,04,16,10,11,16.80
2021,04,16,10,12,16.80
2021,04,16,10,13,16.90
2021,04,16,10,14,16.90
2021,04,16,10,15,17.00
2021,04,16,10,16,17.10
2021,04,16,10,17,17.00
2021,04,16,10,18,17.00
2021,04,16,10,19,17.00
2021,04,16,10,20,17.00
2021,04,16,10,21,17.00
2021,04,16,10,22,17.10
2021,04,16,10,23,17.20
2021,04,16,10,24,17.10
2021,04,16,10,25,17.20
2021,04,16,10,26,17.20
2021,04,16,10,27,17.20
2021,04,16,10,28,17.20
2021,04,16,10,29,17.30
2021,04,16,10,30,17.30
2021,04,16,10,31,17.40
2021,04,16,10,32,17.50
2021,04,16,10,33,17.50
2021,04,16,10,34,17.50
2021,04,16,10,35,17.50
2021,04,16,10,36,17.40
2021,04,16,10,37,17.40
2021,04,16,10,38,17.30
2021,04,16,10,39,17.20
2021,04,16,10,40,17.00
2021,04,16,10,41,16.80
2021,04,16,10,42,16.80
2021,04,16,10,43,16.70
2021,04,16,10,44,16.70
2021,04,16,10,45,16.70
2021,04,16,10,46,16.80
2021,04,16,10,47,16.80
2021,04,16,10,48,16.80
2021,04,16,10,49,16.80
2021,04,16,10,50,16.80
2021,04,16,10,51,16.80
2021,04,16,10,52,16.90
2021,04,16,10,53,16.90
2021,04,16,10,54,16.90
2021,04,16,10,55,16.90
2021,04,16,10,56,16.90
2021,04,16,10,57,16.80
2021,04,16,10,58,16.90
2021,04,16,10,59,17.00
2021,04,16,11,00,17.10
2021,04,16,11,01,17.20
2021,04,16,11,02,17.30
2021,04,16,11,03,17.40
2021,04,16,11,04,17.40
2021,04,16,11,05,17.50
2021,04,16,11,06,17.50
2021,04,16,11,07,17.60
2021,04,16,11,08,17.70
2021,04,16,11,09,17.70
2021,04,16,11,10,17.80
2021,04,16,11,11,17.90
2021,04,16,11,12,18.00
2021,04,16,11,13,17.90
2021,04,16,11,14,17.80
2021,04,16,11,15,17.80
2021,04,16,11,16,17.80
2021,04,16,11,17,17.90
2021,04,16,11,18,18.00
2021,04,16,11,19,18.10
2021,04,16,11,20,18.10
2021,04,16,11,21,18.10
2021,04,16,11,22,18.10
2021,04,16,11,23,18.10
2021,04,16,11,24,18.10
2021,04,16,11,25,18.10
2021,04,16,11,26,18.10
2021,04,16,11,27,18.10
2021,04,16,11,28,18.00
2021,04,16,11,29,18.00
2021,04,16,11,30,18.00
2021,04,16,11,31,18.20
2021,04,16,11,32,18.20
2021,04,16,11,33,18.20
2021,04,16,11,34,18.20
2021,04,16,11,35,18.20
2021,04,16,11,36,18.20
2021,04,16,11,37,18.10
2021,04,16,11,38,18.10
2021,04,16,11,39,18.10
2021,04,16,11,40,18.20
2021,04,16,11,41,18.30
2021,04,16,11,42,18.40
2021,04,16,11,43,18.50
2021,04,16,11,44,18.60
2021,04,16,11,45,18.70
2021,04,16,11,46,18.80
2021,04,16,11,47,18.90
2021,04,16,11,48,19.00
2021,04,16,11,49,19.10
2021,04,16,11,50,19.20
2021,04,16,11,51,19.20
2021,04,16,11,52,19.10
2021,04,16,11,53,18.90
2021,04,16,11,54,18.80
2021,04,16,11,55,18.80
2021,04,16,11,56,18.80
2021,04,16,11,57,18.70
2021,04,16,11,58,18.60
2021,04,16,11,59,18.50
2021,04,16,12,00,18.40
2021,04,16,12,01,18.30
2021,04,16,12,02,18.20
2021,04,16,12,03,18.20
2021,04,16,12,04,18.20
2021,04,16,12,05,18.30
2021,04,16,12,06,18.30
2021,04,16,12,07,18.40
2021,04,16,12,08,18.40
2021,04,16,12,09,18.50
2021,04,16,12,10,18.60
2021,04,16,12,11,18.60
2021,04,16,12,12,18.60
2021,04,16,12,13,18.60
2021,04,16,12,14,18.60
2021,04,16,12,15,18.70
2021,04,16,12,16,18.70
2021,04,16,12,17,18.70
2021,04,16,12,18,18.70
2021,04,16,12,19,18.70
2021,04,16,12,20,18.80
2021,04,16,12,21,18.90
2021,04,16,12,22,19.00
2021,04,16,12,23,19.10
2021,04,16,12,24,19.20
2021,04,16,12,25,19.20
2021,04,16,12,26,19.20
2021,04,16,12,27,19.30
2021,04,16,12,28,19.20
2021,04,16,12,29,19.30
2021,04,16,12,30,19.20
2021,04,16,12,31,19.00
2021,04,16,12,32,18.90
2021,04,16,12,33,18.80
2021,04,16,12,34,18.80
2021,04,16,12,35,18.80
2021,04,16,12,36,18.80
2021,04,16,12,37,18.80
2021,04,16,12,38,18.90
2021,04,16,12,39,18.90
2021,04,16,12,40,19.00
2021,04,16,12,41,19.10
2021,04,16,12,42,19.20
2021,04,16,12,43,19.20
2021,04,16,12,44,19.10
2021,04,16,12,45,19.00
2021,04,16,12,46,18.90
2021,04,16,12,47,18.80
2021,04,16,12,48,18.80
2021,04,16,12,49,18.80
2021,04,16,12,50,18.90
2021,04,16,12,51,19.00
2021,04,16,12,52,19.00
2021,04,16,12,53,19.20
2021,04,16,12,54,19.20
2021,04,16,12,55,19.30
2021,04,16,12,56,19.30
2021,04,16,12,57,19.30
2021,04,16,12,58,19.30
2021,04,16,12,59,19.30
2021,04,16,13,00,19.30
2021,04,16,13,01,19.30
2021,04,16,13,02,19.30
2021,04,16,13,03,19.20
2021,04,16,13,04,19.20
2021,04,16,13,05,19.20
2021,04,16,13,06,19.20
2021,04,16,13,07,19.30
2021,04,16,13,08,19.40
2021,04,16,13,09,19.40
2021,04,16,13,10,19.40
2021,04,16,13,11,19.50
2021,04,16,13,12,19.40
2021,04,16,13,13,19.40
2021,04,16,13,14,19.40
2021,04,16,13,15,19.40
2021,04,16,13,16,19.40
2021,04,16,13,17,19.30
2021,04,16,13,18,19.30
2021,04,16,13,19,19.30
2021,04,16,13,20,19.40
2021,04,16,13,21,19.50
2021,04,16,13,22,19.50
2021,04,16,13,23,19.50
2021,04,16,13,24,19.50
2021,04,16,13,25,19.60
2021,04,16,13,26,19.60
2021,04,16,13,27,19.70
2021,04,16,13,28,19.70
2021,04,16,13,29,19.80
2021,04,16,13,30,19.80
2021,04,16,13,31,19.80
2021,04,16,13,32,19.80
2021,04,16,13,33,19.80
2021,04,16,13,34,19.80
2021,04,16,13,35,19.70
2021,04,16,13,36,19.70
2021,04,16,13,37,19.60
2021,04,16,13,38,19.60
2021,04,16,13,39,19.50
2021,04,16,13,40,19.50
2021,04,16,13,41,19.50
2021,04,16,13,42,19.40
2021,04,16,13,43,19.40
2021,04,16,13,44,19.30
2021,04,16,13,45,19.30
2021,04,16,13,46,19.30
2021,04,16,13,47,19.40
2021,04,16,13,48,19.50
2021,04,16,13,49,19.60
2021,04,16,13,50,19.60
2021,04,16,13,51,19.60
2021,04,16,13,52,19.60
2021,04,16,13,53,19.70
2021,04,16,13,54,19.70
2021,04,16,13,55,19.70
2021,04,16,13,56,19.70
2021,04,16,13,57,19.70
2021,04,16,13,58,19.70
2021,04,16,13,59,19.70
2021,04,16,14,00,19.70
2021,04,16,14,01,19.70
2021,04,16,14,02,19.70
2021,04,16,14,03,19.70
2021,04,16,14,04,19.60
2021,04,16,14,05,19.60
2021,04,16,14,06,19.60
2021,04,16,14,07,19.70
2021,04,16,14,08,19.70
2021,04,16,14,09,19.80
2021,04,16,14,10,19.80
2021,04,16,14,11,19.80
2021,04,16,14,12,19.80
2021,04,16,14,13,19.80
2021,04,16,14,14,19.90
2021,04,16,14,15,19.90
2021,04,16,14,16,19.90
2021,04,16,14,17,19.80
2021,04,16,14,18,19.80
2021,04,16,14,19,19.70
2021,04,16,14,20,19.70
2021,04,16,14,21,19.80
2021,04,16,14,22,19.80
2021,04,16,14,23,19.80
2021,04,16,14,24,19.90
2021,04,16,14,25,19.90
2021,04,16,14,26,19.90
2021,04,16,14,27,19.90
2021,04,16,14,28,19.90
2021,04,16,14,29,20.00
2021,04,16,14,30,20.00
2021,04,16,14,31,20.00
2021,04,16,14,32,19.90
2021,04,16,14,33,20.00
2021,04,16,14,34,20.00
2021,04,16,14,35,20.10
2021,04,16,14,36,20.10
2021,04,16,14,37,20.20
2021,04,16,14,38,20.30
2021,04,16,14,39,20.40
2021,04,16,14,40,20.40
2021,04,16,14,41,20.40
2021,04,16,14,42,20.50
2021,04,16,14,43,20.50
2021,04,16,14,44,20.50
2021,04,16,14,45,20.40
2021,04,16,14,46,20.30
2021,04,16,14,47,20.30
2021,04,16,14,48,20.20
2021,04,16,14,49,20.20
2021,04,16,14,50,20.10
2021,04,16,14,51,20.10
2021,04,16,14,52,20.10
2021,04,16,14,53,20.10
2021,04,16,14,54,20.10
2021,04,16,14,55,20.20
2021,04,16,14,56,20.20
2021,04,16,14,57,20.30
2021,04,16,14,58,20.40
2021,04,16,14,59,20.40
2021,04,16,15,00,20.50
2021,04,16,15,01,20.50
2021,04,16,15,02,20.60
2021,04,16,15,03,20.60
2021,04,16,15,04,20.60
2021,04,16,15,05,20.60
2021,04,16,15,06,20.60
2021,04,16,15,07,20.50
2021,04,16,15,08,20.40
2021,04,16,15,09,20.40
2021,04,16,15,10,20.40
2021,04,16,15,11,20.40
2021,04,16,15,12,20.40
2021,04,16,15,13,20.50
2021,04,16,15,14,20.50
2021,04,16,15,15,20.60
2021,04,16,15,16,20.60
2021,04,16,15,17,20.60
2021,04,16,15,18,20.60
2021,04,16,15,19,20.70
2021,04,16,15,20,20.80
2021,04,16,15,21,20.90
2021,04,16,15,22,21.00
2021,04,16,15,23,21.10
2021,04,16,15,24,21.10
2021,04,16,15,25,21.00
2021,04,16,15,26,20.90
2021,04,16,15,27,20.80
2021,04,16,15,28,20.70
2021,04,16,15,29,20.70
2021,04,16,15,30,20.60
2021,04,16,15,31,20.60
2021,04,16,15,32,20.60
2021,04,16,15,33,20.60
2021,04,16,15,34,20.60
2021,04,16,15,35,20.70
2021,04,16,15,36,20.70
2021,04,16,15,37,20.80
2021,04,16,15,38,20.90
2021,04,16,15,39,20.90
2021,04,16,15,40,21.00
2021,04,16,15,41,21.00
2021,04,16,15,42,20.90
2021,04,16,15,43,20.90
2021,04,16,15,44,20.90
2021,04,16,15,45,20.90
2021,04,16,15,46,20.80
2021,04,16,15,47,20.80
2021,04,16,15,48,20.80
2021,04,16,15,49,20.80
2021,04,16,15,50,20.80
2021,04,16,15,51,20.70
2021,04,16,15,52,20.70
2021,04,16,15,53,20.70
2021,04,16,15,54,20.60
2021,04,16,15,55,20.60
2021,04,16,15,56,20.70
2021,04,16,15,57,20.70
2021,04,16,15,58,20.70
2021,04,16,15,59,20.70
2021,04,16,16,00,20.80
2021,04,16,16,01,20.80
2021,04,16,16,02,20.80
2021,04,16,16,03,20.80
2021,04,16,16,04,20.80
2021,04,16,16,05,20.90
2021,04,16,16,06,21.00
2021,04,16,16,07,21.10
2021,04,16,16,08,21.20
2021,04,16,16,09,21.20
2021,04,16,16,10,21.20
2021,04,16,16,11,21.30
2021,04,16,16,12,21.30
2021,04,16,16,13,21.30
2021,04,16,16,14,21.30
2021,04,16,16,15,21.30
2021,04,16,16,16,21.30
2021,04,16,16,17,21.20
2021,04,16,16,18,21.20
2021,04,16,16,19,21.20
2021,04,16,16,20,21.10
2021,04,16,16,21,21.10
2021,04,16,16,22,21.10
2021,04,16,16,23,21.20
2021,04,16,16,24,21.20
2021,04,16,16,25,21.20
2021,04,16,16,26,21.20
2021,04,16,16,27,21.20
2021,04,16,16,28,21.20
2021,04,16,16,29,21.10
2021,04,16,16,30,21.10
2021,04,16,16,31,21.10
2021,04,16,16,32,21.10
2021,04,16,16,33,21.20
2021,04,16,16,34,21.20
2021,04,16,16,35,21.30
2021,04,16,16,36,21.30
2021,04,16,16,37,21.30
2021,04,16,16,38,21.30
2021,04,16,16,39,21.20
2021,04,16,16,40,21.20
2021,04,16,16,41,21.30
2021,04,16,16,42,21.40
2021,04,16,16,43,21.40
2021,04,16,16,44,21.50
2021,04,16,16,45,21.60
2021,04,16,16,46,21.70
2021,04,16,16,47,21.80
2021,04,16,16,48,21.90
2021,04,16,16,49,21.90
2021,04,16,16,50,22.00
2021,04,16,16,51,22.00
2021,04,16,16,52,22.00
2021,04,16,16,53,22.00
2021,04,16,16,54,22.00
2021,04,16,16,55,22.00
2021,04,16,16,56,22.00
2021,04,16,16,57,22.10
2021,04,16,16,58,22.10
2021,04,16,16,59,22.20
2021,04,16,17,00,22.20
2021,04,16,17,01,22.20
2021,04,16,17,02,22.30
2021,04,16,17,03,22.30
2021,04,16,17,04,22.30
2021,04,16,17,05,22.30
2021,04,16,17,06,22.30
2021,04,16,17,07,22.20
2021,04,16,17,08,22.20
2021,04,16,17,09,22.20
2021,04,16,17,10,22.30
2021,04,16,17,11,22.30
2021,04,16,17,12,22.40
2021,04,16,17,13,22.50
2021,04,16,17,14,22.50
2021,04,16,17,15,22.50
2021,04,16,17,16,22.60
2021,04,16,17,17,22.70
2021,04,16,17,18,22.70
2021,04,16,17,19,22.80
2021,04,16,17,20,22.80
2021,04,16,17,21,22.80
2021,04,16,17,22,22.80
2021,04,16,17,23,22.70
2021,04,16,17,24,22.50
2021,04,16,17,25,22.40
2021,04,16,17,26,22.40
2021,04,16,17,27,22.30
2021,04,16,17,28,22.20
2021,04,16,17,29,22.20
2021,04,16,17,30,22.20
2021,04,16,17,31,22.30
2021,04,16,17,32,22.30
2021,04,16,17,33,22.40
2021,04,16,17,34,22.50
2021,04,16,17,35,22.60
2021,04,16,17,36,22.70